• In Hungary
  • List of Countries
  • For 7 days
  • Water Temperature
  • Satellite Maps
  • Weather Map
  • News
  • Weather Widgets
  • user-avatar
    Login

    Hourly Weather Aksovo

    Today, 20 July, Friday

    Time Temperature Precipitation Wind Pressure Humidity
    00:00 +18°C° 0 mm 3 mps 738 mmHg 93%
    01:00 +18°C° 0 mm 3 mps 738 mmHg 94%
    02:00 +18°C° 0 mm 3 mps 738 mmHg 95%
    03:00 +18°C° 0 mm 3 mps 737 mmHg 95%
    04:00 +18°C° 0 mm 3 mps 737 mmHg 95%
    05:00 +18°C° 0 mm 3 mps 737 mmHg 94%
    06:00 +19°C° 0.1 mm 3 mps 737 mmHg 94%
    07:00 +19°C° 0.1 mm 3 mps 737 mmHg 93%
    08:00 +19°C° 0.1 mm 3 mps 737 mmHg 92%
    09:00 +19°C° 0.1 mm 3 mps 737 mmHg 92%
    10:00 +20°C° 0.1 mm 3 mps 737 mmHg 92%
    11:00 +20°C° 0.1 mm 3 mps 738 mmHg 91%
    12:00 +20°C° 0.1 mm 3 mps 737 mmHg 89%
    13:00 +21°C° 0.1 mm 3 mps 737 mmHg 87%
    14:00 +22°C° 0.1 mm 3 mps 737 mmHg 86%
    15:00 +22°C° 0.4 mm 3 mps 737 mmHg 86%
    16:00 +22°C° 0.4 mm 3 mps 737 mmHg 86%
    17:00 +24°C° 0.4 mm 3 mps 737 mmHg 87%
    18:00 +22°C° 0.6 mm 3 mps 737 mmHg 89%
    19:00 +21°C° 0.6 mm 3 mps 737 mmHg 92%
    20:00 +20°C° 0.6 mm 3 mps 737 mmHg 95%
    21:00 +20°C° 0.9 mm 3 mps 737 mmHg 96%
    22:00 +20°C° 0.9 mm 3 mps 737 mmHg 96%
    23:00 +19°C° 0.9 mm 3 mps 737 mmHg 97%

    Tomorrow, 21 July, Saturday

    Time Temperature Precipitation Wind Pressure Humidity
    00:00 +19°C° 0 mm 3 mps 737 mmHg 97%
    01:00 +19°C° 0 mm 3 mps 737 mmHg 97%
    02:00 +19°C° 0 mm 3 mps 737 mmHg 98%
    03:00 +19°C° 0.3 mm 3 mps 737 mmHg 98%
    04:00 +19°C° 0.3 mm 3 mps 737 mmHg 98%
    05:00 +19°C° 0.3 mm 3 mps 737 mmHg 97%
    06:00 +20°C° 0.2 mm 3 mps 737 mmHg 97%
    07:00 +20°C° 0.2 mm 3 mps 737 mmHg 96%
    08:00 +20°C° 0.2 mm 3 mps 738 mmHg 95%
    09:00 +20°C° 0 mm 3 mps 738 mmHg 94%
    10:00 +21°C° 0 mm 3 mps 738 mmHg 92%
    11:00 +21°C° 0 mm 3 mps 738 mmHg 90%
    12:00 +22°C° 0 mm 4 mps 738 mmHg 87%
    13:00 +23°C° 0 mm 4 mps 738 mmHg 83%
    14:00 +23°C° 0 mm 4 mps 738 mmHg 80%
    15:00 +25°C° 0 mm 4 mps 738 mmHg 79%
    16:00 +25°C° 0 mm 4 mps 738 mmHg 78%
    17:00 +25°C° 0 mm 4 mps 738 mmHg 77%
    18:00 +24°C° 0.1 mm 3 mps 738 mmHg 82%
    19:00 +22°C° 0.1 mm 3 mps 738 mmHg 87%
    20:00 +21°C° 0.1 mm 3 mps 738 mmHg 91%
    21:00 +20°C° 0.1 mm 3 mps 738 mmHg 93%
    22:00 +20°C° 0.1 mm 3 mps 738 mmHg 95%
    23:00 +19°C° 0.1 mm 3 mps 738 mmHg 97%

    Day after tomorrow, 22 July, Sunday

    Time Temperature Precipitation Wind Pressure Humidity
    00:00 +19°C° 0 mm 3 mps 738 mmHg 97%
    01:00 +18°C° 0 mm 3 mps 738 mmHg 97%
    02:00 +18°C° 0 mm 3 mps 738 mmHg 97%
    03:00 +18°C° 0 mm 3 mps 738 mmHg 96%
    04:00 +18°C° 0 mm 3 mps 738 mmHg 96%
    05:00 +18°C° 0 mm 3 mps 738 mmHg 95%
    06:00 +18°C° 0 mm 3 mps 738 mmHg 94%
    07:00 +18°C° 0 mm 3 mps 738 mmHg 93%
    08:00 +18°C° 0 mm 3 mps 738 mmHg 92%
    09:00 +19°C° 0 mm 3 mps 738 mmHg 90%
    10:00 +19°C° 0 mm 3 mps 738 mmHg 88%
    11:00 +20°C° 0 mm 3 mps 738 mmHg 87%
    12:00 +20°C° 0.1 mm 3 mps 738 mmHg 87%
    13:00 +20°C° 0.1 mm 3 mps 738 mmHg 88%
    14:00 +21°C° 0.1 mm 3 mps 738 mmHg 88%
    15:00 +21°C° 0.1 mm 3 mps 738 mmHg 88%
    16:00 +21°C° 0.1 mm 3 mps 738 mmHg 89%
    17:00 +21°C° 0.1 mm 3 mps 738 mmHg 89%
    18:00 +20°C° 0.1 mm 3 mps 738 mmHg 91%
    19:00 +20°C° 0.1 mm 3 mps 738 mmHg 92%
    20:00 +20°C° 0.1 mm 3 mps 738 mmHg 93%
    21:00 +19°C° 0 mm 3 mps 738 mmHg 94%
    22:00 +19°C° 0 mm 3 mps 738 mmHg 94%
    23:00 +19°C° 0 mm 3 mps 738 mmHg 95%

    23 July, Monday

    Time Temperature Precipitation Wind Pressure Humidity
    00:00 +19°C° 0 mm 3 mps 738 mmHg 95%
    01:00 +19°C° 0 mm 3 mps 738 mmHg 96%
    02:00 +18°C° 0 mm 3 mps 738 mmHg 96%
    03:00 +18°C° 0 mm 3 mps 738 mmHg 96%
    04:00 +18°C° 0 mm 3 mps 738 mmHg 96%
    05:00 +18°C° 0 mm 3 mps 738 mmHg 96%
    06:00 +18°C° 0.1 mm 3 mps 738 mmHg 95%
    07:00 +19°C° 0.1 mm 3 mps 738 mmHg 94%
    08:00 +19°C° 0.1 mm 3 mps 738 mmHg 93%
    09:00 +19°C° 0.1 mm 3 mps 738 mmHg 92%
    10:00 +20°C° 0.1 mm 3 mps 738 mmHg 91%
    11:00 +20°C° 0.1 mm 3 mps 739 mmHg 90%
    12:00 +20°C° 0.1 mm 3 mps 739 mmHg 88%
    13:00 +21°C° 0.1 mm 3 mps 739 mmHg 87%
    14:00 +21°C° 0.1 mm 3 mps 739 mmHg 85%
    15:00 +21°C° 0 mm 3 mps 739 mmHg 86%
    16:00 +21°C° 0 mm 3 mps 739 mmHg 86%
    17:00 +21°C° 0 mm 3 mps 739 mmHg 87%
    18:00 +20°C° 0 mm 3 mps 739 mmHg 89%
    19:00 +20°C° 0 mm 2 mps 739 mmHg 91%
    20:00 +19°C° 0 mm 2 mps 739 mmHg 93%
    21:00 +19°C° 0 mm 2 mps 739 mmHg 95%
    22:00 +19°C° 0 mm 2 mps 739 mmHg 96%
    23:00 +19°C° 0 mm 2 mps 739 mmHg 98%

    24 July, Tuesday

    Time Temperature Precipitation Wind Pressure Humidity
    00:00 +19°C° 0 mm 2 mps 738 mmHg 98%
    01:00 +18°C° 0 mm 2 mps 738 mmHg 98%
    02:00 +18°C° 0 mm 2 mps 738 mmHg 98%
    03:00 +19°C° 0 mm 2 mps 738 mmHg 98%
    04:00 +19°C° 0 mm 3 mps 739 mmHg 97%
    05:00 +19°C° 0 mm 3 mps 739 mmHg 97%
    06:00 +19°C° 0.1 mm 3 mps 739 mmHg 96%
    07:00 +19°C° 0.1 mm 3 mps 739 mmHg 96%
    08:00 +19°C° 0.1 mm 3 mps 739 mmHg 95%
    09:00 +20°C° 0 mm 3 mps 740 mmHg 94%
    10:00 +20°C° 0 mm 3 mps 740 mmHg 93%
    11:00 +21°C° 0 mm 2 mps 740 mmHg 92%
    12:00 +21°C° 0.1 mm 3 mps 740 mmHg 89%
    13:00 +22°C° 0.1 mm 3 mps 740 mmHg 87%
    14:00 +24°C° 0.1 mm 3 mps 740 mmHg 84%
    15:00 +24°C° 0.1 mm 3 mps 740 mmHg 83%
    16:00 +24°C° 0.1 mm 3 mps 740 mmHg 83%
    17:00 +25°C° 0.1 mm 3 mps 740 mmHg 82%
    18:00 +24°C° 0.1 mm 3 mps 741 mmHg 86%
    19:00 +23°C° 0.1 mm 2 mps 741 mmHg 90%
    20:00 +21°C° 0.1 mm 2 mps 741 mmHg 94%
    21:00 +20°C° 0 mm 2 mps 741 mmHg 95%
    22:00 +20°C° 0 mm 2 mps 741 mmHg 96%
    23:00 +19°C° 0 mm 2 mps 741 mmHg 97%

    25 July, Wednesday

    Time Temperature Precipitation Wind Pressure Humidity
    00:00 +19°C° 0 mm 2 mps 742 mmHg 98%
    01:00 +19°C° 0 mm 2 mps 742 mmHg 98%
    02:00 +18°C° 0 mm 2 mps 742 mmHg 98%
    03:00 +18°C° 0 mm 2 mps 742 mmHg 98%
    04:00 +19°C° 0 mm 2 mps 742 mmHg 98%
    05:00 +19°C° 0 mm 2 mps 742 mmHg 97%
    06:00 +20°C° 0 mm 2 mps 743 mmHg 92%
    07:00 +23°C° 0 mm 2 mps 743 mmHg 87%
    08:00 +25°C° 0 mm 2 mps 743 mmHg 82%
    09:00 +26°C° 0.4 mm 2 mps 743 mmHg 79%
    10:00 +27°C° 0.4 mm 3 mps 743 mmHg 76%
    11:00 +27°C° 0.4 mm 3 mps 743 mmHg 73%
    12:00 +28°C° 0.7 mm 3 mps 743 mmHg 73%
    13:00 +28°C° 0.7 mm 3 mps 743 mmHg 72%
    14:00 +28°C° 0.7 mm 3 mps 743 mmHg 71%
    15:00 +27°C° 0.6 mm 3 mps 743 mmHg 75%
    16:00 +27°C° 0.6 mm 2 mps 743 mmHg 78%
    17:00 +26°C° 0.6 mm 2 mps 743 mmHg 82%
    18:00 +25°C° 0.2 mm 2 mps 743 mmHg 85%
    19:00 +23°C° 0.2 mm 2 mps 743 mmHg 89%
    20:00 +21°C° 0.2 mm 2 mps 744 mmHg 93%
    21:00 +20°C° 0 mm 2 mps 744 mmHg 93%
    22:00 +19°C° 0 mm 2 mps 744 mmHg 94%
    23:00 +19°C° 0 mm 2 mps 744 mmHg 95%
    Show more